TimeEST,TemperatureF,Dew PointF,Humidity,Sea Level PressureIn,VisibilityMPH,Wind Direction,Wind SpeedMPH,Gust SpeedMPH,PrecipitationIn,Events,Conditions,WindDirDegrees,DateUTC
12:15 AM,25.7,23.0,89,30.47,4.0,East,4.6,-,N/A,,Clear,100,2012-11-17 05:15:00
12:35 AM,25.7,23.4,91,30.48,7.0,Calm,Calm,-,N/A,,Scattered Clouds,0,2012-11-17 05:35:00
12:55 AM,30.0,27.5,90,30.48,0.8,South,5.8,-,N/A,,Overcast,170,2012-11-17 05:55:00
1:15 AM,33.1,30.9,92,30.48,0.2,SSE,4.6,-,N/A,Fog,Fog,160,2012-11-17 06:15:00
1:35 AM,33.1,30.9,92,30.48,0.2,SSE,4.6,-,N/A,,Light Drizzle,150,2012-11-17 06:35:00
1:55 AM,34.7,32.2,91,30.48,0.2,SSE,4.6,-,N/A,Rain,Light Rain,160,2012-11-17 06:55:00
2:15 AM,35.6,33.1,91,30.48,0.2,South,5.8,-,N/A,Rain,Light Rain,170,2012-11-17 07:15:00
2:34 AM,35.6,33.1,91,30.49,0.2,Calm,Calm,-,N/A,Rain,Light Rain,0,2012-11-17 07:34:00
2:55 AM,35.6,33.1,91,30.50,0.2,Calm,Calm,-,N/A,Fog,Fog,0,2012-11-17 07:55:00
3:15 AM,35.6,33.1,91,30.50,0.2,Calm,Calm,-,N/A,Fog,Fog,0,2012-11-17 08:15:00
3:35 AM,35.6,33.1,91,30.50,0.2,South,3.5,-,N/A,Fog,Fog,170,2012-11-17 08:35:00
3:55 AM,35.6,33.1,91,30.50,0.2,Calm,Calm,-,N/A,Fog,Fog,0,2012-11-17 08:55:00
4:15 AM,35.6,33.1,91,30.50,0.2,Calm,Calm,-,N/A,Fog,Fog,0,2012-11-17 09:15:00
4:35 AM,35.6,33.1,91,30.51,0.2,Calm,Calm,-,N/A,Fog,Fog,0,2012-11-17 09:35:00
4:55 AM,35.6,33.3,91,30.51,0.2,SE,3.5,-,N/A,Fog,Fog,140,2012-11-17 09:55:00
5:15 AM,38.3,35.8,91,30.51,0.2,South,3.5,-,N/A,Rain,Light Rain,170,2012-11-17 10:15:00
5:35 AM,38.3,35.8,91,30.51,0.2,SSE,3.5,-,N/A,,Unknown,150,2012-11-17 10:35:00
5:55 AM,38.3,35.8,91,30.52,0.2,Calm,Calm,-,N/A,Fog,Fog,0,2012-11-17 10:55:00
6:15 AM,38.3,35.8,91,30.52,0.2,Calm,Calm,-,N/A,Fog,Fog,0,2012-11-17 11:15:00
6:35 AM,38.3,35.8,91,30.52,0.2,SSE,3.5,-,N/A,Fog,Fog,150,2012-11-17 11:35:00
6:55 AM,38.3,35.8,91,30.52,0.2,SSE,5.8,-,N/A,Fog,Fog,160,2012-11-17 11:55:00
7:15 AM,38.3,35.8,91,30.52,0.2,South,5.8,-,N/A,,Light Drizzle,170,2012-11-17 12:15:00
7:35 AM,38.3,35.8,91,30.52,0.2,SSE,4.6,-,N/A,Rain,Light Rain,160,2012-11-17 12:35:00
7:55 AM,38.3,35.8,91,30.53,0.2,SSE,3.5,-,N/A,Fog,Fog,150,2012-11-17 12:55:00
8:15 AM,38.3,35.8,91,30.53,0.2,South,6.9,-,N/A,Fog,Fog,190,2012-11-17 13:15:00
8:35 AM,38.3,35.8,91,30.54,0.2,South,6.9,-,N/A,Fog,Fog,180,2012-11-17 13:35:00
8:55 AM,38.3,35.8,91,30.54,0.2,SSE,4.6,-,N/A,Fog,Fog,160,2012-11-17 13:55:00
9:14 AM,38.3,35.8,91,30.54,0.2,SE,4.6,-,N/A,Fog,Fog,140,2012-11-17 14:14:00
9:35 AM,38.3,35.8,91,30.54,0.2,Calm,Calm,-,N/A,Fog,Fog,0,2012-11-17 14:35:00
9:55 AM,38.3,35.8,91,30.55,0.2,SE,4.6,-,N/A,Fog,Fog,140,2012-11-17 14:55:00
10:15 AM,38.3,35.8,91,30.55,0.2,SE,4.6,-,N/A,Fog,Fog,140,2012-11-17 15:15:00
10:35 AM,38.3,35.8,91,30.55,0.5,ESE,4.6,-,N/A,Fog,Fog,120,2012-11-17 15:35:00
10:55 AM,38.3,35.8,91,30.55,1.0,SSE,4.6,-,N/A,,Overcast,150,2012-11-17 15:55:00
11:15 AM,38.7,36.3,91,30.55,1.2,SSE,3.5,-,N/A,,Overcast,150,2012-11-17 16:15:00
11:35 AM,39.7,37.2,91,30.55,1.8,SE,5.8,-,N/A,,Overcast,140,2012-11-17 16:35:00
11:55 AM,40.5,37.9,91,30.55,2.5,SSE,4.6,-,N/A,,Mostly Cloudy,150,2012-11-17 16:55:00
12:15 PM,41.2,38.5,90,30.54,3.0,SE,5.8,-,N/A,,Scattered Clouds,140,2012-11-17 17:15:00
12:35 PM,42.1,38.8,88,30.53,4.0,SE,5.8,-,N/A,,Clear,140,2012-11-17 17:35:00
12:55 PM,45.5,40.8,84,30.51,5.0,SE,5.8,-,N/A,,Haze,140,2012-11-17 17:55:00
1:15 PM,48.2,40.8,76,30.50,5.0,SSE,4.6,-,N/A,,Haze,160,2012-11-17 18:15:00
1:35 PM,48.2,39.9,73,30.51,5.0,South,4.6,-,N/A,,Haze,170,2012-11-17 18:35:00
1:55 PM,48.2,36.5,64,30.50,7.0,SW,8.1,-,N/A,,Clear,220,2012-11-17 18:55:00
2:15 PM,50.2,37.9,63,30.50,5.0,SSW,9.2,-,N/A,,Haze,200,2012-11-17 19:15:00
2:35 PM,49.3,36.0,60,30.50,7.0,SSW,10.4,-,N/A,,Clear,210,2012-11-17 19:35:00
2:55 PM,48.2,34.7,60,30.50,7.0,SSW,9.2,-,N/A,,Clear,210,2012-11-17 19:55:00
3:15 PM,48.2,34.9,60,30.50,7.0,SSW,6.9,-,N/A,,Clear,210,2012-11-17 20:15:00
3:35 PM,48.2,36.0,63,30.50,7.0,SW,8.1,-,N/A,,Clear,230,2012-11-17 20:35:00
3:55 PM,48.2,34.2,58,30.50,7.0,SSW,5.8,-,N/A,,Clear,210,2012-11-17 20:55:00
4:15 PM,48.2,32.4,54,30.50,10.0,SSW,6.9,-,N/A,,Clear,210,2012-11-17 21:15:00
4:35 PM,48.2,33.3,56,30.50,10.0,SSW,4.6,-,N/A,,Clear,210,2012-11-17 21:35:00
4:55 PM,45.1,32.0,60,30.50,10.0,SSW,4.6,-,N/A,,Clear,210,2012-11-17 21:55:00
5:15 PM,42.8,30.4,62,30.50,10.0,South,4.6,-,N/A,,Clear,190,2012-11-17 22:15:00
5:35 PM,42.1,29.5,61,30.50,10.0,Calm,Calm,-,N/A,,Clear,0,2012-11-17 22:35:00
5:55 PM,41.2,28.8,61,30.50,10.0,South,3.5,-,N/A,,Clear,180,2012-11-17 22:55:00
6:15 PM,39.0,27.1,62,30.50,10.0,Calm,Calm,-,N/A,,Clear,0,2012-11-17 23:15:00
6:35 PM,35.6,28.4,75,30.49,10.0,Calm,Calm,-,N/A,,Clear,0,2012-11-17 23:35:00
6:55 PM,33.1,27.9,81,30.49,10.0,Calm,Calm,-,N/A,,Clear,0,2012-11-17 23:55:00
7:15 PM,33.1,28.0,82,30.49,10.0,Calm,Calm,-,N/A,,Clear,0,2012-11-18 00:15:00
7:35 PM,33.1,28.4,83,30.49,10.0,Calm,Calm,-,N/A,,Clear,0,2012-11-18 00:35:00
7:55 PM,32.0,28.0,85,30.48,10.0,Calm,Calm,-,N/A,,Clear,0,2012-11-18 00:55:00
8:15 PM,29.1,25.2,85,30.48,10.0,Calm,Calm,-,N/A,,Clear,0,2012-11-18 01:15:00
8:35 PM,29.8,26.1,86,30.48,7.0,Calm,Calm,-,N/A,,Clear,0,2012-11-18 01:35:00
8:55 PM,29.7,26.2,87,30.48,10.0,Calm,Calm,-,N/A,,Clear,0,2012-11-18 01:55:00
9:15 PM,29.1,25.7,87,30.49,10.0,Calm,Calm,-,N/A,,Clear,0,2012-11-18 02:15:00
9:55 PM,30.2,25.9,84,30.48,10.0,Calm,Calm,-,N/A,,Clear,0,2012-11-18 02:55:00
10:15 PM,33.1,28.0,82,30.48,10.0,Calm,Calm,-,N/A,,Clear,0,2012-11-18 03:15:00
10:35 PM,32.2,25.7,77,30.48,10.0,SE,4.6,-,N/A,,Clear,130,2012-11-18 03:35:00
10:55 PM,35.1,27.1,73,30.48,10.0,SE,5.8,-,N/A,,Clear,130,2012-11-18 03:55:00
11:15 PM,35.6,27.3,72,30.48,10.0,SE,3.5,-,N/A,,Clear,130,2012-11-18 04:15:00
11:35 PM,35.6,27.0,71,30.48,10.0,SE,5.8,-,N/A,,Clear,130,2012-11-18 04:35:00
11:55 PM,35.6,26.6,70,30.48,10.0,SE,5.8,-,N/A,,Clear,130,2012-11-18 04:55:00